Location: Bruneau Dunes Observatory
(42.9024°N, 115.6902°W)
Time: 17:17:17
(UTC-07:00)

Daily predictions for brighter satellites

Satellite Brightness Start Highest point End
(mag) Time Altitude Azimuth Time Altitude Azimuth Time Altitude Azimuth
USA 215 4.4 18:44:39 10° NE 18:50:29 36° NNW 18:56:17 10° W
FREGAT/IRIS 3.8 18:48:11 10° SE 18:50:44 24° ENE 18:53:18 10° NNE
CZ-4 R/B 4.0 18:47:54 10° SSW 18:51:28 28° W 18:55:06 10° NW
NOSS 2-2 (D) 4.0 18:52:27 10° SW 18:56:29 65° NW 19:01:13 10° NNE
ALOS 3.1 18:55:28 10° SE 18:59:29 29° ENE 19:03:31 10° N
Cosmos 1536 Rocket 4.1 18:57:25 10° N 19:01:37 38° ENE 19:05:48 10° SE
Cosmos 2333 Rocket 4.2 19:05:29 10° NNE 19:06:42 11° NE 19:07:54 10° NE
Cosmos 1818 3.8 19:03:22 10° S 19:08:35 49° ESE 19:13:50 10° NE
BREEZE-M DEB (TANK) 2.4 19:06:33 10° NW 19:08:42 38° NNE 19:12:05 12° E
Cosmos 1484 Rocket 4.4 19:05:01 10° SSW 19:08:46 40° W 19:12:30 10° NNW
Meteor 1-18 Rocket 4.2 19:04:16 10° N 19:09:51 89° ENE 19:15:27 10° S
SJ-6B 3.0 19:06:12 10° SSE 19:10:05 50° ENE 19:13:55 10° N
ATLAS CENTAUR R/B 4.2 19:09:42 10° WNW 19:11:40 13° NW 19:13:34 10° N
SL-16 R/B 2.3 19:07:30 10° NNW 19:13:13 87° WSW 19:18:52 10° SSE
Cosmos 1340 3.2 19:11:50 10° N 19:15:23 36° ENE 19:18:53 10° SE
Nadezhda 1 Rocket 4.1 19:11:48 10° N 19:17:54 79° W 19:23:57 10° S
Resurs 01 Rocket 2.3 19:14:00 10° SE 19:17:57 33° ENE 19:21:54 10° N
FengYun 1-2 T 4.4 19:13:39 10° SE 19:18:51 47° ENE 19:24:07 10° N
TSX-5 3.9 19:16:17 10° S 19:19:11 33° ESE 19:21:44 12° NE
DNEPR-1 R/B 3.6 19:14:56 10° NW 19:19:12 79° WSW 19:23:27 10° SSE
Cosmos 1238 Rocket 2.9 19:18:30 10° NNE 19:21:13 28° ENE 19:23:49 10° SE
Cosmos 407 Rocket 3.5 19:16:35 10° SSW 19:21:49 81° ESE 19:27:09 10° NNE
Cosmos 676 Rocket 4.0 19:18:59 10° S 19:24:03 58° ESE 19:29:10 10° NNE
Tiangong 2 1.9 19:21:17 10° W 19:24:15 43° SSW 19:26:33 15° SE
Meteor 1-28 Rocket 4.2 19:20:44 10° N 19:24:27 51° WNW 19:28:09 10° SSW
DELTA 2 R/B (1) 4.0 19:19:19 10° W 19:24:49 59° S 19:29:26 15° ESE
Gbstr 26 Del rocket 4.1 19:22:29 10° S 19:25:23 21° SE 19:26:34 18° ESE
Meteor 1-20 Rocket 4.4 19:21:26 10° SSW 19:27:15 82° W 19:33:09 10° N
BREEZE-M DEB (TANK) 3.9 19:18:21 10° WNW 19:27:57 65° SW 19:30:58 11° SE
Cosmos 2322 Rocket 2.8 19:25:29 10° NNW 19:31:02 61° WSW 19:36:32 10° S
Cosmos 2181 Rocket 4.0 19:26:07 10° N 19:32:17 60° E 19:38:30 10° SSE
COSMO-SKYMED 1 4.2 19:28:55 10° N 19:32:56 37° WNW 19:36:55 10° SW
Cosmos 1300 Rocket 3.8 19:29:33 10° SSE 19:33:47 47° E 19:38:03 10° NNE
Cosmos 1536 3.7 19:31:29 10° SSE 19:34:53 27° E 19:38:17 10° NNE
Meteor 1-13 Rocket 4.1 19:33:14 10° N 19:38:45 67° ENE 19:44:20 10° SSE
Okean 1 3.8 19:35:38 10° NNW 19:39:40 65° W 19:43:41 10° S
CZ-2D R/B 3.9 19:38:26 21° ESE 19:40:18 34° ENE 19:43:46 10° N
Resurs 1-3 3.8 19:36:14 10° SE 19:40:25 47° ENE 19:44:39 10° N
Cosmos 1461 3.7 19:40:01 10° NW 19:43:54 49° WSW 19:47:52 10° SSE
Cosmos 2322 3.7 19:38:15 10° NNW 19:43:57 61° ENE 19:49:34 10° SE
Cosmos 1140 Rocket 3.5 19:41:45 10° S 19:46:45 56° ESE 19:51:49 10° NNE
FENGYUN 3A 3.6 19:42:19 10° SSE 19:47:44 83° ENE 19:53:11 10° NNW
H-2A R/B 2.6 19:45:44 10° SSE 19:49:22 58° ENE 19:53:03 10° N
Cosmos 2208 Rocket 4.5 19:45:23 10° N 19:50:33 41° ENE 19:53:07 26° ESE
Cosmos 2074 Rocket 4.3 19:46:12 10° SSE 19:52:00 43° E 19:57:52 10° NNE
Cosmos 1709 Rocket 4.0 19:46:28 10° S 19:52:43 83° W 19:58:55 10° N
Cosmos 2184 Rocket 4.3 19:46:56 10° SSE 19:52:47 42° E 19:58:37 10° NNE
SAR-Lupe-4 3.7 19:55:00 42° ESE 19:55:41 49° ENE 19:59:09 10° N
SL-19 R/B 4.3 19:50:17 10° SSE 19:55:55 85° ENE 20:01:56 10° NNW
Spot 2 Rocket 3.4 19:51:30 10° SSE 19:56:32 80° ENE 20:01:38 10° NNW
COSMOS 2428 3.1 19:51:36 10° NNW 19:57:00 42° ENE 19:59:04 31° ESE
Cosmos 2237 4.3 19:51:58 10° NNW 19:57:36 53° ENE 20:00:37 26° SE
Meteor 2-4 Rocket 3.6 19:52:28 10° N 19:58:00 60° ENE 20:03:22 10° SSE
Cosmos 614 Rocket 3.9 19:54:01 10° S 19:58:58 54° ESE 20:03:55 10° NNE
Helios 1A 3.2 19:58:09 36° ESE 19:59:18 47° ENE 20:03:19 10° N
HJ-1C 4.3 20:01:10 10° S 20:04:26 50° W 20:07:44 10° NNW
Okean 1 Rocket 3.0 20:00:19 10° S 20:04:47 79° E 20:09:18 10° N
Cosmos 1850 Rocket 4.1 20:00:44 10° S 20:05:51 54° ESE 20:11:04 10° NNE
Cosmos 2237 Rocket 3.7 20:01:57 10° N 20:05:44 20° NE 20:05:44 20° NE
Envisat 3.6 20:13:16 36° ENE 20:13:16 36° ENE 20:17:30 10° N
GEOS 3 Rocket 3.9 20:09:23 11° NNE 20:14:25 70° NW 20:19:39 10° SW
Meteor 1-11 Rocket 3.9 20:09:00 10° SSW 20:14:47 80° W 20:20:43 10° N
Cosmos 1954 Rocket 4.4 20:10:10 10° SSW 20:15:17 62° WNW 20:20:30 10° NNE
USA 229 DEB 4.0 20:10:29 10° NNW 20:17:25 52° NE 20:19:44 39° E
USA 229 4.0 20:10:35 10° NNW 20:17:31 51° NE 20:19:48 39° E
Cosmos 2285 Rocket 4.2 20:11:35 10° NNW 20:17:52 51° ENE 20:19:33 41° ESE
Helios 1B rocket 3.4 20:20:32 34° S 20:20:32 34° S 20:23:01 10° S
Cosmos 2219 3.2 20:15:34 10° S 20:21:10 56° ESE 20:23:09 38° NE
Cosmos 1633 4.1 20:18:02 10° SW 20:21:27 36° WNW 20:24:55 10° N
Okean 1-7 Rocket 3.6 20:18:21 10° N 20:22:55 83° W 20:25:47 22° S
Cosmos 2360 Rocket 2.7 20:17:36 10° NNW 20:23:09 60° WSW 20:28:42 10° S
ERS-1 Rocket 4.5 20:25:34 22° NNE 20:25:34 22° NNE 20:27:52 10° N
Cosmos 2219 Rocket 2.7 20:21:01 10° NNW 20:25:54 40° NE 20:25:54 40° NE
Cosmos 1025 Rocket 2.9 20:27:54 10° N 20:32:18 87° W 20:32:29 82° SSW
ALOS 4.2 20:32:46 10° SSW 20:36:51 30° W 20:40:58 10° NW
SL-16 R/B 4.2 20:34:25 10° N 20:36:07 14° NNE 20:36:07 14° NNE
Spot 1 4.4 20:37:58 48° SW 20:38:42 57° WSW 20:42:46 10° NNW
Meteor 2-13 Rocket 4.2 20:40:26 10° S 20:46:26 72° E 20:52:31 10° NNE
NOSS 3-1 (C) 4.4 20:43:43 10° NNW 20:50:44 43° NE 20:51:11 43° NE
Cosmos 2333 Rocket 2.8 20:46:45 10° NNW 20:51:04 44° NNE 20:51:04 44° NNE
Resurs 01 Rocket 3.9 20:50:55 10° SSW 20:54:28 24° W 20:58:02 10° NW
Cosmos 1741 Rocket 4.5 20:50:41 10° SSW 20:55:50 58° WNW 20:59:12 22° N
BREEZE-M DEB (TANK) 3.9 20:52:09 10° WNW 20:55:53 80° SSW 20:56:45 67° SE
NOSS 0 Rocket 4.2 20:58:15 10° NNW 21:03:16 56° N 21:03:16 56° N
COSMOS 2428 4.3 21:36:13 10° NW 21:41:04 30° WSW 21:41:08 30° WSW
Cosmos 2237 Rocket 3.9 21:45:03 10° NNW 21:47:35 28° NNW 21:47:35 28° NNW
Cosmos 2219 Rocket 4.3 22:05:14 10° NW 22:07:40 22° WNW 22:07:40 22° WNW
ATLAS 2AS CENTAUR R/B 4.4 22:19:56 10° NNW 22:24:17 29° N 22:24:17 29° N
